Temp
23 23 22 22 20 19 21 24 25 24 24 25 24 23 22 20 21 20 19 19 20 19 17 18 18 18 18 18 18 19 18 18 18 18 18 18 19 19 20 20 19 19 19 19 19 19 19 19 19
23 23 23 23 20 20 21 23 22 23 23 24 24 23 22 19 19 18 18 19 20 20 18 18 18 19 19 18 18 18 18 18 18 18 18 19 19 19 20 20 19 19 19 19 19 19 19 19 19
24 23 23 18 19 20 21 23 23 24 24 25 23 22 21 18 18 18 19 19 20 20 19 18 19 19 19 19 18 18 18 18 18 18 19 19 19 19 19 19 19 19 19 18 18 18 19 18 18
24 24 22 19 20 21 21 21 22 23 25 24 23 21 20 19 18 19 20 19 19 20 19 19 19 19 19 19 18 18 18 18 19 19 19 19 19 19 19 19 19 19 18 18 18 18 18 18 18
25 24 19 20 21 22 21 21 22 22 23 23 23 21 18 18 19 20 20 20 20 19 19 19 19 19 19 19 19 19 19 18 19 19 19 19 19 19 19 19 19 19 18 18 18 18 17 17 17
24 22 20 20 21 22 22 22 21 21 23 22 22 20 18 19 19 19 20 20 20 20 20 19 19 19 19 19 19 19 19 19 19 19 19 19 19 19 18 18 19 18 18 18 18 17 17 17 17
22 20 21 21 21 21 22 23 21 22 23 22 22 18 17 19 19 20 19 19 19 20 20 20 19 19 19 19 19 19 19 19 19 19 19 19 19 19 18 18 18 18 18 18 18 18 17 17 17
25 21 23 22 21 22 23 22 23 23 21 22 22 18 17 18 19 20 19 19 19 19 19 20 19 19 19 19 19 19 19 19 19 19 19 19 19 18 18 18 18 17 17 17 17 17 17 17 17
25 21 22 24 23 24 23 22 23 22 22 21 21 21 21 20 19 19 19 18 18 18 19 19 19 19 19 18 18 18 17 18 18 18 18 18 18 18 17 18 17 17 17 17 17 17 17 17 17
24 21 24 25 24 23 23 23 22 22 20 20 20 21 21 20 19 20 19 19 19 19 19 19 19 19 19 18 18 17 16 16 17 17 18 18 18 18 18 18 18 18 17 17 18 17 17 17 17
24 23 26 27 27 26 24 23 23 21 20 21 19 20 21 20 19 20 20 21 20 20 19 19 19 19 19 19 18 17 17 17 17 17 18 18 18 18 18 17 17 18 17 18 18 18 18 17 17
27 27 27 28 28 26 24 24 23 23 24 24 22 22 21 21 20 21 20 20 20 20 20 19 19 19 19 18 18 18 17 17 17 18 18 18 18 18 18 17 17 18 18 18 18 18 18 18 18
28 28 28 29 28 27 26 24 24 23 24 24 21 21 22 21 21 20 20 20 20 20 20 19 19 19 19 19 18 17 17 17 17 17 17 18 18 18 17 18 18 18 18 18 18 18 18 18 18
28 28 29 28 28 28 27 25 26 23 23 22 22 21 21 21 21 20 20 20 20 20 20 20 19 19 19 19 18 18 17 17 17 17 18 18 18 18 18 18 18 18 18 18 18 18 18 18 18
28 28 28 28 27 27 27 25 25 24 23 21 21 21 21 21 20 22 21 21 21 20 20 20 20 19 19 18 18 18 17 17 17 17 18 18 18 18 18 17 18 18 18 18 19 19 19 19 19
25 25 25 27 26 27 27 23 24 23 23 20 20 20 21 21 22 22 21 21 21 20 20 20 20 19 19 19 18 18 18 17 17 17 18 18 18 18 18 17 18 18 18 18 18 18 19 19 19
22 24 25 25 26 25 26 24 24 23 23 20 20 20 21 20 20 21 21 21 21 21 21 20 19 20 19 19 19 18 18 17 17 17 18 18 18 18 18 18 18 18 18 18 18 19 19 19 19
25 24 24 25 27 26 25 24 23 22 22 21 21 21 21 21 22 22 22 21 21 21 21 21 21 20 20 19 19 18 17 18 17 18 18 18 19 19 18 18 18 18 18 19 18 19 19 19 19
24 24 23 23 26 27 24 24 25 22 22 22 22 21 22 23 23 22 22 21 21 21 21 21 21 21 20 19 19 18 18 18 18 18 18 18 19 19 18 18 18 18 18 19 19 19 19 19 18
23 24 24 25 27 26 26 25 24 21 22 23 22 22 23 23 23 23 22 22 22 22 22 22 21 21 20 20 20 19 19 18 18 18 18 18 18 18 19 18 19 19 19 19 19 19 19 19 19
23 24 25 26 26 26 26 24 25 24 23 23 23 24 24 23 24 24 23 23 23 23 23 22 22 21 21 20 20 19 18 18 18 18 18 18 18 18 18 19 19 19 19 19 19 19 19 19 19
25 24 26 27 24 24 24 22 23 21 22 22 23 24 25 25 24 25 24 24 25 24 24 23 22 22 21 21 20 20 19 19 19 19 19 18 18 18 18 18 18 19 18 19 19 18 19 19 19
25 26 26 26 23 23 23 22 22 19 24 24 23 24 25 25 25 25 25 24 24 24 23 23 22 22 22 21 20 20 19 19 19 18 19 18 18 18 18 18 18 19 19 19 18 19 19 19 19
26 25 20 18 19 21 22 22 20 18 18 19 22 24 24 25 25 25 25 25 24 24 24 23 22 22 22 22 21 21 20 19 19 19 19 19 19 18 18 18 18 18 19 19 19 19 19 19 19
24 21 20 23 20 22 19 20 19 20 20 19 19 21 23 24 24 25 25 25 24 24 24 23 23 22 22 21 21 21 21 20 19 19 19 19 19 19 19 18 18 19 19 19 19 19 19 19 19
24 22 20 24 21 22 21 21 21 21 20 20 19 21 23 23 23 23 24 24 24 24 24 23 24 24 23 22 21 21 20 20 20 20 19 19 19 19 19 19 19 19 19 18 19 19 19 19 19
25 23 22 18 18 20 20 22 22 21 19 19 19 21 20 21 21 22 22 23 23 23 24 25 25 24 23 22 22 21 19 17 19 20 20 19 19 19 19 19 19 19 19 19 19 19 19 19 19
25 22 23 18 24 23 21 21 19 20 20 18 18 18 19 20 21 21 23 24 24 24 24 24 24 24 22 22 21 22 24 21 19 18 19 20 20 19 19 19 19 19 19 18 18 18 18 18 19
23 22 18 17 18 20 19 20 20 20 19 18 17 18 19 20 20 21 21 22 23 23 23 22 22 21 20 22 21 21 21 22 21 20 20 20 20 20 19 19 19 19 19 19 18 18 18 18 18
23 22 18 19 22 15 17 19 17 17 18 18 18 18 18 19 20 21 22 22 23 23 23 22 20 19 19 20 19 19 19 18 18 19 19 19 20 20 20 20 19 19 19 19 19 18 18 18 18
Height
1496 1496 1496 1496 1506 1509 1520 1511 1500 1505 1505 1504 1505 1508 1510 1513 1515 1529 1522 1528 1531 1536 1541 1545 1548 1551 1555 1558 1560 1562 1563 1566 1568 1571 1573 1574 1575 1576 1577 1577 1579 1580 1581 1582 1583 1584 1584 1585 1586
1497 1497 1497 1496 1513 1529 1525 1507 1510 1505 1505 1506 1508 1510 1512 1516 1517 1517 1522 1527 1532 1536 1541 1546 1550 1554 1556 1558 1561 1564 1566 1568 1570 1572 1573 1575 1576 1577 1578 1578 1578 1579 1580 1582 1583 1584 1584 1586 1587
1499 1499 1498 1504 1520 1528 1524 1512 1510 1508 1508 1508 1510 1512 1514 1518 1518 1520 1525 1529 1534 1538 1542 1547 1552 1554 1556 1559 1562 1566 1568 1569 1571 1573 1574 1576 1577 1578 1579 1578 1578 1579 1580 1581 1582 1583 1584 1586 1587
1500 1500 1502 1517 1524 1518 1514 1510 1510 1509 1509 1509 1510 1515 1518 1519 1520 1524 1527 1531 1537 1541 1545 1548 1552 1556 1558 1560 1564 1566 1569 1571 1572 1574 1575 1577 1579 1580 1579 1579 1579 1579 1580 1581 1582 1583 1585 1586 1587
1500 1500 1512 1521 1521 1514 1510 1509 1510 1511 1513 1511 1512 1518 1522 1524 1525 1527 1531 1535 1539 1542 1547 1550 1553 1557 1559 1561 1563 1567 1569 1571 1573 1574 1576 1578 1579 1580 1580 1580 1580 1580 1580 1581 1582 1583 1584 1586 1588
1502 1504 1522 1528 1521 1513 1510 1509 1512 1514 1514 1513 1514 1518 1524 1526 1528 1530 1533 1537 1542 1545 1548 1552 1554 1557 1559 1561 1563 1566 1569 1571 1574 1575 1576 1578 1579 1580 1580 1581 1581 1581 1581 1581 1583 1584 1584 1586 1587
1503 1509 1519 1519 1520 1518 1510 1508 1512 1514 1515 1516 1516 1522 1525 1526 1530 1532 1536 1539 1543 1546 1550 1552 1555 1557 1560 1562 1563 1566 1569 1571 1574 1575 1576 1577 1578 1579 1580 1581 1581 1582 1582 1582 1583 1584 1584 1585 1587
1500 1504 1514 1515 1522 1518 1507 1509 1510 1514 1517 1517 1517 1520 1523 1525 1529 1533 1538 1541 1544 1548 1551 1553 1556 1558 1560 1562 1563 1565 1567 1570 1573 1574 1575 1576 1577 1578 1579 1580 1581 1582 1582 1583 1583 1584 1585 1586 1587
1501 1512 1519 1512 1513 1507 1507 1510 1512 1514 1516 1517 1517 1517 1520 1524 1529 1533 1538 1542 1545 1548 1551 1554 1556 1557 1559 1561 1563 1565 1565 1569 1572 1573 1574 1576 1577 1578 1579 1580 1581 1582 1583 1584 1584 1584 1586 1586 1587
1502 1515 1509 1500 1500 1502 1504 1508 1511 1514 1514 1515 1516 1518 1521 1525 1529 1533 1536 1540 1544 1547 1551 1554 1556 1558 1559 1561 1563 1563 1563 1565 1572 1572 1574 1576 1577 1579 1580 1580 1581 1582 1583 1583 1584 1585 1586 1587 1587
1500 1508 1498 1497 1497 1500 1508 1510 1509 1512 1516 1511 1513 1517 1521 1525 1530 1533 1535 1538 1542 1547 1550 1553 1555 1558 1560 1563 1565 1567 1568 1570 1571 1572 1574 1575 1577 1579 1579 1580 1581 1580 1582 1583 1584 1585 1586 1586 1587
1501 1497 1497 1496 1496 1500 1506 1508 1508 1510 1508 1508 1512 1515 1520 1524 1527 1531 1535 1538 1542 1546 1549 1553 1555 1557 1560 1563 1564 1567 1568 1570 1572 1573 1574 1576 1577 1578 1580 1580 1582 1581 1581 1581 1583 1584 1585 1586 1586
1499 1499 1497 1495 1497 1500 1504 1506 1506 1508 1508 1508 1514 1518 1520 1524 1527 1532 1536 1540 1543 1547 1549 1551 1554 1556 1559 1562 1564 1565 1566 1569 1571 1572 1574 1575 1577 1579 1580 1580 1580 1581 1581 1581 1582 1583 1584 1585 1585
1499 1498 1496 1496 1496 1500 1503 1507 1507 1510 1509 1511 1514 1518 1521 1523 1526 1531 1534 1538 1542 1546 1549 1552 1554 1556 1559 1561 1563 1564 1565 1568 1569 1571 1573 1575 1577 1578 1579 1579 1578 1579 1580 1580 1581 1582 1583 1585 1585
1499 1498 1495 1495 1497 1500 1502 1509 1507 1506 1509 1512 1515 1518 1521 1524 1527 1527 1532 1536 1541 1545 1550 1552 1554 1556 1558 1560 1563 1563 1564 1566 1568 1570 1572 1574 1576 1577 1577 1576 1577 1577 1579 1580 1581 1582 1583 1584 1584
1503 1503 1514 1496 1497 1499 1502 1518 1503 1504 1507 1512 1516 1518 1520 1522 1523 1529 1533 1536 1540 1544 1547 1551 1553 1556 1557 1560 1562 1563 1564 1565 1567 1569 1572 1573 1575 1577 1577 1575 1576 1577 1579 1581 1581 1581 1582 1583 1584
1515 1525 1515 1507 1495 1498 1503 1509 1502 1503 1506 1510 1514 1517 1519 1522 1525 1528 1531 1534 1539 1542 1546 1549 1552 1554 1557 1559 1562 1563 1564 1565 1566 1568 1570 1572 1574 1576 1577 1577 1578 1579 1580 1581 1582 1582 1582 1583 1583
1526 1525 1517 1516 1501 1497 1504 1504 1501 1504 1505 1506 1511 1515 1517 1519 1519 1523 1527 1532 1537 1541 1544 1548 1551 1553 1556 1559 1561 1562 1563 1564 1566 1567 1569 1571 1573 1575 1576 1578 1578 1579 1580 1580 1582 1582 1582 1582 1583
1516 1521 1522 1507 1497 1500 1504 1504 1500 1502 1506 1507 1508 1511 1513 1514 1518 1523 1526 1530 1534 1538 1543 1546 1549 1552 1555 1557 1559 1560 1560 1563 1565 1565 1567 1568 1571 1574 1575 1576 1577 1578 1579 1580 1581 1581 1581 1581 1581
1515 1517 1517 1504 1496 1499 1502 1502 1497 1497 1496 1497 1501 1506 1508 1512 1517 1521 1524 1527 1530 1535 1540 1544 1546 1550 1553 1556 1558 1559 1561 1562 1560 1565 1565 1567 1569 1571 1573 1574 1575 1576 1578 1578 1579 1580 1580 1580 1579
1513 1516 1513 1511 1499 1498 1502 1511 1500 1496 1496 1500 1502 1504 1506 1508 1513 1518 1521 1525 1528 1532 1536 1540 1543 1547 1550 1554 1556 1558 1560 1561 1562 1562 1563 1564 1566 1568 1570 1572 1573 1574 1575 1576 1578 1578 1579 1579 1580
1515 1498 1501 1502 1513 1527 1509 1542 1513 1506 1500 1497 1499 1500 1501 1505 1510 1517 1520 1523 1526 1530 1534 1537 1541 1545 1548 1552 1554 1556 1558 1560 1560 1561 1561 1562 1563 1565 1567 1568 1570 1572 1572 1574 1577 1578 1579 1578 1577
1505 1496 1499 1502 1516 1518 1520 1535 1520 1511 1503 1498 1495 1497 1498 1504 1510 1513 1517 1523 1528 1530 1533 1536 1539 1543 1546 1550 1553 1556 1558 1560 1561 1561 1561 1562 1562 1563 1564 1566 1567 1569 1569 1572 1574 1576 1577 1577 1577
1496 1499 1511 1519 1528 1544 1530 1532 1534 1527 1521 1508 1496 1495 1496 1500 1507 1512 1515 1520 1523 1526 1530 1534 1538 1542 1545 1549 1551 1554 1556 1559 1560 1561 1561 1561 1561 1561 1561 1562 1564 1566 1567 1569 1572 1574 1575 1575 1575
1500 1516 1546 1540 1551 1548 1532 1537 1533 1517 1512 1509 1501 1495 1498 1502 1504 1508 1513 1518 1521 1524 1528 1531 1534 1538 1542 1545 1548 1550 1552 1554 1555 1556 1556 1558 1558 1558 1558 1559 1560 1562 1565 1567 1569 1570 1572 1574 1574
1503 1512 1542 1544 1555 1545 1529 1542 1528 1515 1512 1508 1504 1500 1501 1503 1508 1513 1516 1519 1522 1521 1522 1527 1529 1533 1536 1539 1543 1546 1548 1549 1551 1553 1555 1553 1553 1554 1556 1557 1558 1559 1561 1563 1565 1566 1568 1570 1571
1502 1515 1510 1539 1544 1547 1544 1529 1518 1516 1515 1512 1509 1506 1508 1510 1513 1516 1517 1516 1514 1522 1520 1521 1523 1528 1531 1535 1537 1539 1539 1530 1544 1548 1550 1550 1550 1550 1552 1553 1554 1555 1556 1558 1560 1562 1564 1566 1567
1494 1502 1522 1533 1540 1545 1546 1539 1540 1525 1521 1518 1515 1514 1514 1515 1516 1517 1518 1519 1518 1516 1516 1517 1519 1523 1527 1532 1535 1532 1526 1527 1534 1540 1543 1542 1544 1545 1545 1546 1548 1549 1551 1553 1555 1556 1559 1561 1563
1507 1512 1522 1529 1539 1551 1559 1546 1522 1521 1521 1522 1521 1520 1519 1517 1517 1518 1519 1518 1515 1514 1514 1517 1519 1524 1528 1526 1530 1528 1523 1523 1530 1533 1537 1536 1536 1538 1540 1541 1542 1542 1544 1547 1549 1551 1554 1555 1557
1503 1509 1520 1534 1534 1549 1546 1541 1520 1519 1520 1522 1523 1523 1522 1520 1519 1520 1520 1518 1514 1515 1516 1519 1524 1525 1527 1529 1530 1526 1523 1524 1529 1529 1532 1530 1531 1531 1532 1534 1535 1536 1537 1539 1543 1545 1548 1549 1551
Wind_Speed
6 6 3 2 4 5 3 4 2 4 2 2 15 3 5 4 2 2 18 30 29 30 30 27 25 23 23 22 23 24 25 24 22 21 19 17 16 14 12 10 9 8 7 7 6 6 6 5 6
7 5 3 1 4 4 3 4 6 5 4 14 9 9 5 3 3 11 33 28 30 31 32 29 24 22 23 23 23 23 22 22 21 19 17 16 15 12 9 8 8 7 8 8 8 6 5 5 5
5 7 2 4 3 3 1 6 3 4 3 4 4 6 3 3 6 28 29 35 31 31 31 28 24 22 22 23 23 23 22 21 20 18 16 14 13 11 9 7 6 8 8 8 8 8 7 6 7
8 3 5 5 2 2 3 1 1 3 5 7 10 6 6 6 17 22 28 34 29 29 29 28 25 23 22 22 22 22 22 20 18 17 15 13 11 9 7 6 6 7 7 7 7 7 7 8 8
7 3 5 4 1 0 3 4 7 4 5 3 3 3 6 12 14 20 26 30 27 28 27 25 24 24 23 22 21 21 21 19 18 16 13 11 9 8 7 7 7 7 6 6 6 7 7 8 9
3 3 4 2 2 1 5 9 2 1 5 2 7 6 4 3 9 23 26 26 23 25 25 24 23 23 23 23 22 21 19 17 16 14 13 11 9 8 7 8 8 7 5 5 5 6 7 9 9
4 3 3 3 2 1 4 8 6 2 3 4 10 4 5 11 13 21 26 24 23 23 22 22 22 22 22 22 22 21 19 16 14 14 13 11 9 8 9 9 7 5 5 5 5 7 8 8 8
3 3 3 4 5 5 7 11 4 4 1 8 7 5 6 17 21 21 25 24 23 21 20 20 20 20 20 19 19 20 18 16 14 14 12 10 9 9 11 8 6 5 5 5 6 7 8 9 8
3 4 1 3 6 3 12 7 6 5 9 5 9 5 9 24 24 23 26 25 23 21 19 19 18 18 18 18 16 17 17 16 14 12 11 11 10 11 11 8 7 6 5 5 6 8 9 9 8
4 3 6 6 6 5 19 8 12 6 6 4 7 7 19 27 26 25 27 28 25 23 22 19 18 18 18 18 14 11 12 13 10 11 11 10 11 11 10 8 7 7 6 6 7 8 8 9 7
4 5 5 6 11 11 13 4 8 10 4 11 22 22 30 28 27 25 25 25 26 23 22 21 19 18 17 14 11 13 12 10 12 11 10 11 11 11 9 9 8 7 7 7 8 8 8 8 7
1 4 7 5 10 10 12 12 5 12 5 6 21 24 30 29 28 26 25 26 25 25 22 22 20 19 17 14 9 11 11 13 14 11 10 10 11 11 9 8 6 7 7 8 9 9 10 9 8
3 2 8 9 13 13 14 11 5 8 5 8 23 27 29 29 28 26 24 25 25 24 21 22 20 18 18 14 11 6 9 13 14 13 11 10 12 9 10 8 5 9 8 7 9 10 10 9 8
5 6 6 10 12 8 6 5 8 5 12 18 22 28 29 29 30 29 28 27 26 24 21 20 22 19 17 14 12 11 10 9 14 15 14 11 10 6 12 10 7 9 12 8 10 11 10 10 8
6 2 4 3 8 4 7 1 5 14 19 24 23 24 28 29 30 32 30 28 21 23 20 19 19 17 17 14 13 10 12 11 15 17 16 13 10 7 9 11 10 12 12 10 11 11 10 10 9
5 5 4 4 8 2 10 8 6 22 26 27 25 25 26 29 31 31 31 29 26 23 21 19 19 17 14 14 14 10 12 10 13 16 16 14 11 8 3 8 6 12 13 12 11 11 11 10 8
7 2 3 7 8 5 4 7 3 27 27 25 26 28 29 29 27 29 31 31 27 23 18 17 18 19 14 13 13 11 12 11 12 16 17 17 14 11 7 7 8 10 12 13 13 12 8 8 10
3 4 5 4 3 3 5 10 4 22 24 25 27 28 29 29 30 28 28 29 28 24 17 14 15 16 17 15 14 14 13 12 13 15 17 17 16 13 11 11 12 11 11 14 13 10 8 6 9
2 3 5 6 5 5 7 6 5 17 16 17 25 29 32 32 25 27 27 27 24 22 22 20 18 18 18 19 18 17 17 16 14 14 15 18 17 14 12 14 16 13 12 14 12 10 9 9 12
2 2 5 6 2 5 1 8 6 13 20 29 27 30 33 32 28 25 26 27 28 26 22 22 21 20 20 19 18 17 15 15 14 15 15 17 18 14 14 14 15 11 13 15 13 10 11 11 13
3 4 4 7 4 4 3 8 3 1 11 16 20 28 29 30 29 25 26 25 26 26 25 23 23 21 20 19 19 19 18 16 17 17 17 17 20 19 16 16 16 15 16 16 14 12 14 13 13
2 6 5 2 3 2 3 4 5 7 5 10 17 25 31 31 28 25 24 23 23 20 22 23 23 22 21 20 21 21 20 18 15 16 15 15 21 19 16 14 14 14 14 16 14 14 14 16 14
8 4 2 3 4 3 3 4 6 8 5 5 12 25 31 29 26 25 24 22 21 22 22 21 21 21 22 22 21 22 23 20 17 15 17 16 18 20 17 16 15 14 16 16 16 16 16 16 15
3 4 8 5 4 3 4 4 5 4 6 9 14 13 23 25 23 22 22 19 19 21 21 21 22 22 21 21 22 23 23 21 20 18 19 20 19 22 21 19 19 17 18 19 17 17 16 14 14
3 6 3 4 4 3 4 4 7 6 6 8 12 5 15 17 20 23 21 17 16 15 18 20 21 21 22 23 23 22 23 23 23 20 21 22 23 21 22 20 19 20 20 19 21 20 17 15 16
3 6 5 3 2 2 3 1 4 4 9 9 7 10 14 18 18 14 12 12 11 13 12 16 18 18 20 23 24 24 26 26 26 23 24 23 24 25 20 23 23 22 23 21 20 22 21 21 21
2 1 4 7 3 3 1 3 3 6 7 13 13 17 17 18 18 17 16 14 14 11 10 10 10 14 17 20 20 23 26 25 29 30 26 27 26 24 24 24 25 25 23 25 25 25 24 24 23
4 4 3 4 1 2 1 3 4 3 3 6 11 17 20 18 14 9 4 3 3 6 7 7 10 12 10 13 19 19 27 34 32 33 33 29 29 29 26 26 27 27 28 26 26 29 27 25 25
5 3 6 5 3 5 3 5 2 6 4 3 4 14 19 19 19 17 15 16 18 14 9 6 3 4 4 8 15 21 20 19 32 30 36 32 29 29 29 29 29 29 30 30 30 30 29 29 28
2 2 4 5 3 1 3 4 3 6 9 12 9 13 18 21 21 19 18 20 23 21 17 11 3 6 8 9 7 10 13 22 20 26 27 29 30 29 30 30 31 31 33 32 32 34 34 33 32
Wind_Direction
346 30 27 81 53 62 23 360 67 73 90 221 150 136 129 69 111 172 145 157 161 157 158 161 159 155 157 157 156 154 156 153 153 149 146 145 142 142 145 151 157 159 171 173 174 164 155 139 126
18 352 9 76 76 55 328 327 47 350 110 131 113 94 52 68 70 136 149 155 162 161 162 164 162 158 161 166 164 160 160 159 158 157 156 157 154 156 161 173 179 194 204 203 198 201 193 173 155
32 353 19 74 77 105 141 23 62 59 55 126 103 73 66 69 122 146 150 154 160 164 165 167 165 162 159 164 168 168 167 166 163 163 163 162 157 160 169 181 200 211 212 208 202 205 199 183 171
356 358 64 74 72 234 244 260 291 5 42 39 107 61 64 358 135 146 151 155 161 163 169 172 171 170 168 163 163 165 169 168 165 165 163 164 168 173 182 205 213 210 198 190 193 197 190 187 182
359 47 56 78 200 289 278 265 281 88 359 3 46 84 67 121 140 151 154 157 162 162 168 173 174 177 176 172 168 165 169 167 167 168 167 174 183 185 193 202 196 196 190 184 180 184 176 186 187
27 58 61 148 246 154 268 240 350 305 287 119 99 92 103 193 171 156 156 157 162 162 168 171 171 175 178 177 177 172 173 173 177 179 181 187 190 187 187 182 186 182 176 189 176 174 172 173 181
122 93 163 146 144 169 248 228 224 154 162 49 138 84 128 153 161 158 160 159 163 164 167 172 173 177 180 183 182 177 178 185 188 188 184 187 191 190 176 180 185 179 180 180 174 173 168 171 176
129 89 132 165 180 232 198 160 236 185 178 140 175 155 169 171 164 163 165 166 168 167 171 174 177 180 182 182 184 184 180 190 192 190 188 187 193 187 171 181 184 180 186 180 179 172 173 172 171
155 58 129 211 163 195 165 176 160 186 155 159 179 169 165 161 166 165 170 173 177 178 180 181 186 184 187 189 194 188 187 185 190 192 192 192 192 184 176 180 185 192 190 181 182 173 175 181 182
123 116 218 194 185 184 171 170 174 150 153 155 127 176 169 168 169 168 171 178 184 184 184 183 191 195 196 192 197 192 198 194 195 203 198 192 191 184 180 185 189 202 201 197 187 187 183 196 197
163 176 205 230 207 175 152 158 198 128 242 207 168 162 170 173 175 179 176 181 181 181 184 187 191 198 199 194 197 197 204 196 192 202 196 190 191 185 186 190 206 212 214 219 206 197 196 201 185
287 239 182 230 206 159 151 166 207 198 295 263 189 176 172 178 184 189 188 187 184 186 182 188 190 195 198 198 203 216 218 209 205 207 199 197 192 191 191 202 235 218 215 210 206 200 194 190 187
84 335 220 231 208 197 145 182 213 207 267 159 170 175 181 188 194 195 197 195 192 191 185 189 189 193 198 203 197 205 212 207 209 213 208 202 201 216 212 199 238 222 211 193 200 200 201 203 194
307 267 252 200 216 213 153 151 164 173 161 161 171 184 190 197 201 201 205 203 204 197 192 193 194 195 200 205 206 213 212 211 210 213 212 209 209 210 209 214 245 235 220 203 206 200 196 193 212
300 315 349 220 184 180 145 132 224 175 173 169 181 190 198 205 208 213 210 210 209 207 198 198 197 198 204 209 207 212 211 223 217 215 216 217 216 213 240 238 250 208 202 194 182 191 204 209 209
33 43 2 284 134 216 154 262 193 174 172 175 185 195 203 209 216 219 218 219 217 217 207 204 201 203 197 207 207 211 206 213 207 213 217 214 209 196 284 217 214 192 189 189 189 187 196 209 208
10 345 301 315 190 136 149 261 148 180 180 179 187 197 208 214 223 226 227 228 226 227 216 212 205 208 200 204 209 212 209 211 210 214 217 221 219 213 200 186 187 188 196 196 199 199 198 209 233
303 339 315 262 298 125 189 260 131 182 181 185 194 199 208 218 226 228 228 230 230 235 230 224 219 212 208 209 210 214 212 209 212 220 222 223 221 211 205 211 207 211 208 204 203 210 223 238 225
195 201 249 262 267 180 204 248 210 191 200 191 199 205 214 222 227 227 232 236 229 234 231 229 225 215 214 211 211 216 216 210 211 225 228 223 220 217 213 206 209 217 219 205 214 232 234 248 245
161 319 289 285 282 157 78 274 262 179 212 208 201 207 217 223 226 229 230 235 241 240 233 228 231 228 220 220 224 224 223 219 217 231 231 223 213 218 221 208 207 220 215 211 228 242 250 241 254
240 198 233 233 359 37 64 312 322 263 237 224 223 227 228 225 223 224 229 233 237 237 235 229 230 231 230 224 230 233 234 232 225 223 222 225 223 224 230 228 226 226 231 235 232 244 248 249 255
278 205 221 133 79 208 48 271 15 321 270 224 216 223 233 231 230 232 234 232 229 231 233 234 235 234 234 234 234 239 245 244 246 237 239 237 224 223 232 233 232 230 236 220 232 252 253 259 274
223 150 66 54 92 69 4 86 290 349 14 280 237 226 230 230 228 225 228 230 231 233 240 242 243 240 236 240 243 246 251 252 255 257 246 246 226 224 232 236 236 233 227 220 234 246 262 264 264
95 74 41 47 75 42 319 126 314 331 291 300 311 268 220 219 215 219 222 227 228 234 237 246 252 253 246 243 250 251 256 258 255 259 248 247 244 237 240 242 236 233 230 240 246 242 250 256 249
91 56 346 15 16 191 287 53 245 286 332 303 318 348 186 192 195 204 212 216 225 234 236 242 249 257 257 251 252 256 260 261 258 258 259 253 252 247 239 236 230 234 233 243 236 247 237 247 251
59 142 155 201 197 251 12 28 289 355 10 7 51 101 143 158 164 175 194 204 225 234 238 239 247 256 257 257 260 261 264 265 267 268 267 255 252 256 250 239 238 241 241 242 240 239 243 250 249
177 123 175 105 6 81 250 329 321 32 1 12 37 92 100 124 137 144 144 170 202 225 235 259 251 250 258 260 251 261 275 274 274 268 268 265 253 253 251 248 246 247 245 245 243 243 248 250 251
109 142 48 15 137 132 268 200 218 225 326 1 34 62 85 92 116 125 107 17 290 294 328 260 242 258 246 257 263 253 287 273 266 271 263 259 259 252 251 249 248 246 247 247 247 247 248 248 249
2 20 51 112 101 154 160 253 214 186 148 125 47 85 87 89 87 79 65 53 48 43 23 45 219 241 232 267 251 266 273 307 274 275 271 262 253 253 254 252 250 248 245 246 250 250 252 250 250
20 102 114 116 225 72 141 251 28 123 144 137 131 112 99 93 88 80 67 56 51 52 51 49 256 247 189 179 195 286 291 292 287 280 275 275 272 257 251 253 253 253 249 246 247 250 251 251 249